| time (UTC) | temp F | wind direction | speed MPH | gust MPH | rain 1hr in | rain 24hr in | rain mn in | humidity % | barometer mb |
| 20260508012740 | 48 | 95 | 0.0 | 1.0 | 0.00 | 0.03 | 0.03 | 92 | 1007.7 |
| 20260508012237 | 48 | 100 | 1.0 | 1.0 | 0.00 | 0.03 | 0.03 | 92 | 1007.7 |
| 20260508011735 | 48 | 120 | 1.0 | 2.0 | 0.00 | 0.03 | 0.03 | 91 | 1007.5 |
| 20260508011232 | 48 | 117 | 1.0 | 2.0 | 0.00 | 0.03 | 0.03 | 90 | 1007.4 |
| 20260508010729 | 49 | 100 | 1.0 | 2.0 | 0.00 | 0.03 | 0.03 | 90 | 1007.6 |
| 20260508010227 | 49 | 113 | 1.0 | 2.0 | 0.00 | 0.03 | 0.03 | 90 | 1007.4 |
| 20260508005724 | 49 | 117 | 0.0 | 1.0 | 0.00 | 0.03 | 0.03 | 90 | 1007.2 |
| 20260508005221 | 49 | 148 | 0.0 | 1.0 | 0.00 | 0.03 | 0.03 | 90 | 1007.2 |
| 20260508004716 | 50 | 113 | 0.0 | 0.0 | 0.00 | 0.03 | 0.03 | 90 | 1007.1 |
| 20260508004213 | 50 | 113 | 1.0 | 2.0 | 0.00 | 0.03 | 0.03 | 89 | 1007.2 |
| 20260508003709 | 50 | 98 | 1.0 | 2.0 | 0.00 | 0.03 | 0.03 | 89 | 1006.8 |
| 20260508003207 | 50 | 104 | 0.0 | 2.0 | 0.00 | 0.03 | 0.03 | 89 | 1007.1 |
| 20260508002703 | 50 | 119 | 1.0 | 2.0 | 0.00 | 0.03 | 0.03 | 89 | 1007.0 |
| 20260508002201 | 50 | 127 | 0.0 | 1.0 | 0.00 | 0.03 | 0.03 | 89 | 1007.1 |
| 20260508001656 | 51 | 119 | 1.0 | 2.0 | 0.00 | 0.03 | 0.03 | 89 | 1007.0 |
| 20260508001152 | 51 | 126 | 0.0 | 2.0 | 0.00 | 0.03 | 0.03 | 90 | 1006.8 |
| 20260508000648 | 51 | 135 | 1.0 | 2.0 | 0.00 | 0.03 | 0.03 | 90 | 1006.7 |
| 20260508000146 | 51 | 124 | 1.0 | 2.0 | 0.00 | 0.03 | 0.03 | 90 | 1006.5 |
| 20260507235642 | 51 | 115 | 2.0 | 2.0 | 0.00 | 0.03 | 0.03 | 90 | 1006.7 |
| 20260507235140 | 51 | 122 | 2.0 | 2.0 | 0.00 | 0.03 | 0.03 | 90 | 1006.3 |
| 20260507234637 | 51 | 100 | 1.0 | 1.0 | 0.00 | 0.03 | 0.03 | 89 | 1006.4 |
| 20260507234132 | 52 | 135 | 0.0 | 0.0 | 0.00 | 0.03 | 0.03 | 89 | 1006.1 |
| 20260507233630 | 52 | 81 | 0.0 | 1.0 | 0.00 | 0.03 | 0.03 | 88 | 1006.4 |
| 20260507233128 | 52 | 95 | 0.0 | 1.0 | 0.00 | 0.03 | 0.03 | 88 | 1006.3 |
| 20260507232625 | 53 | 81 | 2.0 | 2.0 | 0.00 | 0.03 | 0.03 | 87 | 1006.3 |
| 20260507232122 | 53 | 103 | 0.0 | 1.0 | 0.00 | 0.03 | 0.03 | 86 | 1006.3 |
| 20260507231618 | 53 | 76 | 1.0 | 1.0 | 0.00 | 0.03 | 0.03 | 85 | 1006.2 |
| 20260507231115 | 53 | 89 | 0.0 | 0.0 | 0.00 | 0.03 | 0.03 | 84 | 1006.0 |
| 20260507230611 | 52 | 88 | 0.0 | 0.0 | 0.00 | 0.03 | 0.03 | 83 | 1006.2 |
| 20260507230109 | 53 | 64 | 0.0 | 1.0 | 0.00 | 0.03 | 0.03 | 84 | 1006.0 |
| 20260507225603 | 53 | 80 | 0.0 | 1.0 | 0.00 | 0.03 | 0.03 | 84 | 1006.1 |
| 20260507225100 | 53 | 102 | 0.0 | 2.0 | 0.00 | 0.03 | 0.03 | 84 | 1006.2 |
| 20260507224555 | 53 | 94 | 2.0 | 2.0 | 0.00 | 0.03 | 0.03 | 82 | 1006.0 |
| 20260507224052 | 54 | 66 | 0.0 | 2.0 | 0.00 | 0.03 | 0.03 | 82 | 1006.1 |
| 20260507223548 | 54 | 48 | 0.0 | 2.0 | 0.00 | 0.03 | 0.03 | 76 | 1006.1 |
| 20260507223046 | 54 | 154 | 0.0 | 2.0 | 0.00 | 0.03 | 0.03 | 78 | 1006.2 |
| 20260507222543 | 54 | 124 | 0.0 | 2.0 | 0.00 | 0.03 | 0.03 | 78 | 1006.1 |
| 20260507222039 | 54 | 81 | 2.0 | 3.0 | 0.00 | 0.03 | 0.03 | 80 | 1006.1 |
| 20260507221535 | 54 | 93 | 2.0 | 2.0 | 0.00 | 0.03 | 0.03 | 82 | 1006.2 |
| 20260507221032 | 53 | 174 | 0.0 | 3.0 | 0.00 | 0.03 | 0.03 | 79 | 1006.2 |
| 20260507220530 | 53 | 86 | 2.0 | 2.0 | 0.00 | 0.03 | 0.03 | 84 | 1006.0 |
| 20260507220027 | 54 | 113 | 0.0 | 2.0 | 0.00 | 0.03 | 0.03 | 82 | 1006.1 |
| 20260507215523 | 54 | 168 | 0.0 | 0.0 | 0.00 | 0.03 | 0.03 | 84 | 1006.2 |
| 20260507215021 | 53 | 50 | 0.0 | 1.0 | 0.00 | 0.03 | 0.03 | 84 | 1006.3 |
| 20260507214518 | 53 | 114 | 1.0 | 3.0 | 0.00 | 0.03 | 0.03 | 84 | 1006.3 |
| 20260507214014 | 54 | 87 | 2.0 | 3.0 | 0.00 | 0.03 | 0.03 | 85 | 1006.3 |
| 20260507213510 | 53 | 141 | 0.0 | 2.0 | 0.00 | 0.03 | 0.03 | 86 | 1006.3 |
| 20260507213007 | 53 | 33 | 0.0 | 2.0 | 0.00 | 0.03 | 0.03 | 86 | 1006.3 |
| 20260507212503 | 53 | 141 | 3.0 | 3.0 | 0.00 | 0.03 | 0.03 | 89 | 1006.5 |
| 20260507212000 | 53 | 40 | 2.0 | 2.0 | 0.00 | 0.03 | 0.03 | 89 | 1006.4 |
| 20260507211456 | 52 | 89 | 1.0 | 2.0 | 0.00 | 0.03 | 0.03 | 89 | 1006.5 |
| 20260507210953 | 53 | 92 | 2.0 | 2.0 | 0.00 | 0.03 | 0.03 | 89 | 1006.5 |
| 20260507210450 | 52 | 108 | 1.0 | 2.0 | 0.00 | 0.03 | 0.03 | 89 | 1006.5 |
| 20260507205947 | 53 | 104 | 3.0 | 3.0 | 0.00 | 0.03 | 0.03 | 89 | 1006.4 |
| 20260507205444 | 53 | 96 | 1.0 | 2.0 | 0.00 | 0.03 | 0.03 | 88 | 1006.5 |
| 20260507204940 | 53 | 89 | 0.0 | 1.0 | 0.00 | 0.03 | 0.03 | 86 | 1006.3 |
| 20260507204436 | 52 | 59 | 1.0 | 2.0 | 0.00 | 0.03 | 0.03 | 85 | 1006.0 |
| 20260507203934 | 52 | 109 | 0.0 | 1.0 | 0.00 | 0.03 | 0.03 | 86 | 1006.2 |
| 20260507203431 | 52 | 68 | 0.0 | 1.0 | 0.00 | 0.03 | 0.03 | 87 | 1006.3 |
| 20260507202928 | 52 | 29 | 0.0 | 1.0 | 0.00 | 0.03 | 0.03 | 88 | 1006.6 |
| 20260507202419 | 53 | 30 | 1.0 | 1.0 | 0.00 | 0.03 | 0.03 | 82 | 1007.0 |
| 20260507201915 | 53 | 107 | 2.0 | 2.0 | 0.00 | 0.03 | 0.03 | 77 | 1006.9 |
| 20260507201410 | 53 | 208 | 3.0 | 3.0 | 0.00 | 0.03 | 0.03 | 77 | 1006.6 |
| 20260507200907 | 53 | 206 | 2.0 | 2.0 | 0.02 | 0.03 | 0.03 | 80 | 1006.2 |
| 20260507200403 | 53 | 44 | 2.0 | 2.0 | 0.02 | 0.03 | 0.03 | 88 | 1006.2 |
| 20260507195859 | 52 | 173 | 0.0 | 1.0 | 0.00 | 0.02 | 0.02 | 86 | 1006.3 |
| 20260507195356 | 52 | 35 | 1.0 | 2.0 | 0.00 | 0.02 | 0.02 | 84 | 1006.3 |
| 20260507194854 | 53 | 76 | 0.0 | 1.0 | 0.00 | 0.02 | 0.02 | 82 | 1006.6 |
| 20260507194350 | 53 | 38 | 0.0 | 1.0 | 0.00 | 0.02 | 0.02 | 80 | 1006.6 |
| 20260507193846 | 53 | 120 | 0.0 | 1.0 | 0.00 | 0.02 | 0.02 | 77 | 1006.5 |
| 20260507193344 | 53 | 157 | 0.0 | 1.0 | 0.00 | 0.02 | 0.02 | 73 | 1006.5 |
| 20260507192840 | 54 | 224 | 0.0 | 0.0 | 0.00 | 0.02 | 0.02 | 73 | 1006.5 |
| 20260507192336 | 55 | 27 | 0.0 | 0.0 | 0.00 | 0.02 | 0.02 | 69 | 1006.8 |
| 20260507191833 | 55 | 23 | 1.0 | 2.0 | 0.00 | 0.02 | 0.02 | 65 | 1006.7 |
| 20260507191329 | 55 | 218 | 0.0 | 2.0 | 0.00 | 0.02 | 0.02 | 62 | 1006.8 |
| 20260507190826 | 55 | 180 | 0.0 | 1.0 | 0.00 | 0.02 | 0.02 | 68 | 1006.8 |
| 20260507190324 | 55 | 22 | 0.0 | 1.0 | 0.00 | 0.02 | 0.02 | 66 | 1006.7 |
| 20260507185823 | 55 | 173 | 0.0 | 2.0 | 0.00 | 0.02 | 0.02 | 65 | 1006.6 |
| 20260507185319 | 55 | 212 | 2.0 | 2.0 | 0.00 | 0.02 | 0.02 | 59 | 1006.8 |
| 20260507184816 | 55 | 78 | 0.0 | 2.0 | 0.00 | 0.02 | 0.02 | 60 | 1006.8 |
| 20260507184315 | 55 | 223 | 0.0 | 3.0 | 0.00 | 0.02 | 0.02 | 59 | 1006.7 |
| 20260507183811 | 55 | 228 | 1.0 | 3.0 | 0.00 | 0.02 | 0.02 | 58 | 1006.7 |
| 20260507183308 | 55 | 287 | 0.0 | 2.0 | 0.00 | 0.02 | 0.02 | 60 | 1006.7 |
| 20260507182806 | 56 | 232 | 3.0 | 3.0 | 0.00 | 0.02 | 0.02 | 60 | 1006.9 |
| 20260507182301 | 55 | 269 | 1.0 | 2.0 | 0.00 | 0.02 | 0.02 | 60 | 1006.9 |
| 20260507181757 | 55 | 225 | 0.0 | 0.0 | 0.00 | 0.02 | 0.02 | 59 | 1006.9 |
| 20260507181253 | 56 | 205 | 1.0 | 1.0 | 0.00 | 0.02 | 0.02 | 57 | 1006.9 |
| 20260507180750 | 55 | 245 | 0.0 | 2.0 | 0.00 | 0.02 | 0.02 | 56 | 1007.2 |
| 20260507180247 | 55 | 255 | 0.0 | 2.0 | 0.00 | 0.02 | 0.02 | 59 | 1007.5 |
| 20260507175742 | 56 | 242 | 1.0 | 2.0 | 0.00 | 0.02 | 0.02 | 60 | 1007.4 |
| 20260507175240 | 55 | 231 | 1.0 | 2.0 | 0.00 | 0.02 | 0.02 | 59 | 1007.2 |
| 20260507174737 | 55 | 237 | 0.0 | 1.0 | 0.00 | 0.02 | 0.02 | 62 | 1007.2 |
| 20260507174235 | 55 | 186 | 0.0 | 0.0 | 0.00 | 0.02 | 0.02 | 62 | 1007.3 |
| 20260507173733 | 55 | 157 | 0.0 | 1.0 | 0.00 | 0.02 | 0.02 | 63 | 1007.7 |
| 20260507173229 | 55 | 89 | 0.0 | 1.0 | 0.00 | 0.02 | 0.02 | 64 | 1007.7 |
| 20260507172725 | 56 | 18 | 1.0 | 2.0 | 0.00 | 0.02 | 0.02 | 62 | 1007.9 |
| 20260507172217 | 56 | 80 | 0.0 | 2.0 | 0.00 | 0.02 | 0.02 | 59 | 1008.0 |
| 20260507171717 | 56 | 227 | 1.0 | 2.0 | 0.00 | 0.02 | 0.02 | 56 | 1008.0 |
| 20260507171215 | 56 | 224 | 0.0 | 2.0 | 0.00 | 0.02 | 0.02 | 54 | 1007.7 |
| 20260507170711 | 56 | 216 | 1.0 | 3.0 | 0.00 | 0.02 | 0.02 | 55 | 1007.5 |
| 20260507170208 | 57 | 304 | 0.0 | 2.0 | 0.00 | 0.02 | 0.02 | 54 | 1007.7 |
| 20260507165703 | 57 | 37 | 0.0 | 2.0 | 0.00 | 0.02 | 0.02 | 55 | 1007.7 |
| 20260507165200 | 57 | 55 | 0.0 | 1.0 | 0.00 | 0.02 | 0.02 | 54 | 1008.0 |
| 20260507164655 | 58 | 226 | 0.0 | 2.0 | 0.00 | 0.02 | 0.02 | 51 | 1007.8 |
| 20260507164148 | 57 | 217 | 0.0 | 2.0 | 0.00 | 0.02 | 0.02 | 53 | 1007.8 |
| 20260507163645 | 57 | 119 | 2.0 | 3.0 | 0.00 | 0.02 | 0.02 | 51 | 1007.7 |
| 20260507163143 | 57 | 100 | 2.0 | 2.0 | 0.00 | 0.02 | 0.02 | 54 | 1008.1 |
| 20260507162638 | 56 | 93 | 2.0 | 2.0 | 0.00 | 0.02 | 0.02 | 53 | 1008.2 |
| 20260507162135 | 56 | 126 | 2.0 | 3.0 | 0.00 | 0.02 | 0.02 | 53 | 1008.2 |
| 20260507161631 | 57 | 130 | 1.0 | 2.0 | 0.00 | 0.02 | 0.02 | 52 | 1008.4 |
| 20260507161128 | 57 | 180 | 1.0 | 2.0 | 0.00 | 0.02 | 0.02 | 52 | 1008.1 |
| 20260507160624 | 57 | 304 | 0.0 | 2.0 | 0.00 | 0.02 | 0.02 | 51 | 1008.4 |
| 20260507160121 | 57 | 233 | 0.0 | 4.0 | 0.00 | 0.02 | 0.02 | 51 | 1008.6 |
| 20260507155616 | 57 | 157 | 0.0 | 3.0 | 0.00 | 0.02 | 0.02 | 51 | 1008.2 |
| 20260507155114 | 57 | 168 | 1.0 | 3.0 | 0.00 | 0.02 | 0.02 | 53 | 1008.2 |
| 20260507154610 | 56 | 257 | 2.0 | 3.0 | 0.00 | 0.02 | 0.02 | 51 | 1008.6 |
| 20260507154107 | 56 | 246 | 0.0 | 3.0 | 0.00 | 0.02 | 0.02 | 53 | 1008.5 |
| 20260507153604 | 56 | 261 | 0.0 | 3.0 | 0.00 | 0.02 | 0.02 | 51 | 1008.4 |
| 20260507153100 | 56 | 176 | 4.0 | 4.0 | 0.00 | 0.02 | 0.02 | 50 | 1008.8 |
| 20260507152555 | 57 | 245 | 0.0 | 3.0 | 0.00 | 0.02 | 0.02 | 51 | 1008.6 |
| 20260507152047 | 57 | 214 | 0.0 | 1.0 | 0.00 | 0.02 | 0.02 | 53 | 1008.6 |
| 20260507151543 | 56 | 199 | 0.0 | 1.0 | 0.00 | 0.02 | 0.02 | 53 | 1008.4 |
| 20260507151040 | 57 | 241 | 2.0 | 2.0 | 0.00 | 0.02 | 0.02 | 52 | 1008.4 |
| 20260507150537 | 57 | 264 | 1.0 | 3.0 | 0.00 | 0.02 | 0.02 | 50 | 1008.4 |
| 20260507150034 | 57 | 225 | 0.0 | 3.0 | 0.00 | 0.02 | 0.02 | 50 | 1008.6 |
| 20260507145528 | 56 | 226 | 4.0 | 4.0 | 0.00 | 0.02 | 0.02 | 49 | 1008.8 |
| 20260507145027 | 56 | 219 | 8.0 | 8.0 | 0.00 | 0.02 | 0.02 | 48 | 1009.0 |
| 20260507144523 | 56 | 233 | 0.0 | 4.0 | 0.00 | 0.02 | 0.02 | 49 | 1008.6 |
| 20260507144021 | 57 | 263 | 2.0 | 3.0 | 0.00 | 0.02 | 0.02 | 50 | 1009.0 |
| 20260507143518 | 57 | 329 | 1.0 | 3.0 | 0.00 | 0.02 | 0.02 | 51 | 1009.0 |
| 20260507143015 | 57 | 244 | 0.0 | 5.0 | 0.00 | 0.02 | 0.02 | 53 | 1008.7 |
| 20260507142510 | 57 | 186 | 3.0 | 4.0 | 0.00 | 0.02 | 0.02 | 52 | 1008.8 |
| 20260507142007 | 57 | 249 | 1.0 | 5.0 | 0.00 | 0.02 | 0.02 | 54 | 1008.9 |
| 20260507141503 | 57 | 275 | 2.0 | 4.0 | 0.00 | 0.02 | 0.02 | 60 | 1008.9 |
| 20260507141000 | 57 | 56 | 0.0 | 5.0 | 0.00 | 0.02 | 0.02 | 63 | 1008.8 |
| 20260507140456 | 57 | 195 | 2.0 | 4.0 | 0.00 | 0.02 | 0.02 | 63 | 1008.7 |
| 20260507135954 | 57 | 268 | 2.0 | 5.0 | 0.00 | 0.02 | 0.02 | 62 | 1008.9 |
| 20260507135451 | 57 | 99 | 2.0 | 3.0 | 0.00 | 0.02 | 0.02 | 65 | 1008.6 |
| 20260507134948 | 57 | 218 | 1.0 | 2.0 | 0.00 | 0.02 | 0.02 | 70 | 1008.6 |
| 20260507134444 | 57 | 233 | 0.0 | 5.0 | 0.00 | 0.02 | 0.02 | 73 | 1008.4 |
| 20260507133941 | 57 | 196 | 3.0 | 3.0 | 0.00 | 0.02 | 0.02 | 72 | 1008.5 |
| 20260507133437 | 57 | 288 | 0.0 | 3.0 | 0.00 | 0.02 | 0.02 | 73 | 1008.8 |
| 20260507132936 | 56 | 206 | 2.0 | 4.0 | 0.00 | 0.02 | 0.02 | 76 | 1008.6 |
| 20260507132431 | 56 | 161 | 1.0 | 3.0 | 0.00 | 0.02 | 0.02 | 79 | 1008.7 |
| 20260507131928 | 56 | 307 | 3.0 | 4.0 | 0.00 | 0.02 | 0.02 | 78 | 1008.7 |
| 20260507131425 | 56 | 154 | 1.0 | 4.0 | 0.00 | 0.02 | 0.02 | 78 | 1008.6 |
| 20260507130922 | 57 | 223 | 4.0 | 4.0 | 0.00 | 0.02 | 0.02 | 78 | 1008.4 |
| 20260507130419 | 57 | 192 | 0.0 | 2.0 | 0.00 | 0.02 | 0.02 | 82 | 1008.7 |
| 20260507125918 | 56 | 181 | 3.0 | 3.0 | 0.00 | 0.02 | 0.02 | 81 | 1008.5 |
| 20260507125415 | 57 | 99 | 2.0 | 3.0 | 0.00 | 0.02 | 0.02 | 82 | 1008.7 |
| 20260507124913 | 56 | 312 | 3.0 | 4.0 | 0.00 | 0.02 | 0.02 | 83 | 1008.4 |
| 20260507124408 | 56 | 109 | 2.0 | 3.0 | 0.00 | 0.02 | 0.02 | 83 | 1008.3 |
| 20260507123907 | 56 | 132 | 0.0 | 3.0 | 0.00 | 0.02 | 0.02 | 85 | 1008.3 |
| 20260507123404 | 55 | 257 | 2.0 | 2.0 | 0.00 | 0.02 | 0.02 | 86 | 1008.3 |
| 20260507122900 | 55 | 320 | 0.0 | 3.0 | 0.00 | 0.02 | 0.02 | 85 | 1008.2 |
| 20260507122355 | 55 | 324 | 2.0 | 2.0 | 0.00 | 0.02 | 0.02 | 85 | 1008.6 |
| 20260507121852 | 55 | 97 | 2.0 | 3.0 | 0.00 | 0.02 | 0.02 | 87 | 1008.4 |
| 20260507121347 | 55 | 84 | 1.0 | 2.0 | 0.00 | 0.02 | 0.02 | 87 | 1008.2 |
| 20260507120844 | 55 | 95 | 1.0 | 2.0 | 0.00 | 0.02 | 0.02 | 87 | 1008.5 |
| 20260507120341 | 55 | 187 | 0.0 | 3.0 | 0.00 | 0.02 | 0.02 | 86 | 1008.6 |
| 20260507115837 | 55 | 282 | 2.0 | 3.0 | 0.00 | 0.02 | 0.02 | 87 | 1008.5 |
| 20260507115332 | 55 | 302 | 0.0 | 3.0 | 0.00 | 0.02 | 0.02 | 89 | 1008.4 |
| 20260507114828 | 55 | 198 | 0.0 | 3.0 | 0.00 | 0.02 | 0.02 | 89 | 1008.3 |
| 20260507114326 | 55 | 148 | 0.0 | 2.0 | 0.00 | 0.02 | 0.02 | 90 | 1008.1 |
| 20260507113823 | 55 | 344 | 1.0 | 3.0 | 0.00 | 0.02 | 0.02 | 90 | 1008.2 |
| 20260507113320 | 55 | 68 | 2.0 | 3.0 | 0.00 | 0.02 | 0.02 | 90 | 1008.6 |
| 20260507112818 | 55 | 224 | 0.0 | 2.0 | 0.00 | 0.02 | 0.02 | 89 | 1008.8 |
| 20260507112314 | 55 | 102 | 1.0 | 3.0 | 0.00 | 0.02 | 0.02 | 90 | 1008.6 |
| 20260507111812 | 55 | 202 | 1.0 | 3.0 | 0.00 | 0.02 | 0.02 | 91 | 1008.6 |
| 20260507111309 | 55 | 315 | 0.0 | 2.0 | 0.00 | 0.02 | 0.02 | 90 | 1008.3 |
| 20260507110805 | 55 | 121 | 2.0 | 3.0 | 0.00 | 0.02 | 0.02 | 90 | 1008.1 |
| 20260507110301 | 55 | 175 | 0.0 | 3.0 | 0.00 | 0.02 | 0.02 | 90 | 1008.7 |
| 20260507105758 | 55 | 175 | 2.0 | 2.0 | 0.00 | 0.02 | 0.02 | 90 | 1008.4 |
| 20260507105254 | 55 | 127 | 0.0 | 2.0 | 0.00 | 0.02 | 0.02 | 90 | 1008.2 |
| 20260507104751 | 54 | 258 | 1.0 | 3.0 | 0.00 | 0.02 | 0.02 | 91 | 1008.1 |
| 20260507104248 | 55 | 336 | 0.0 | 3.0 | 0.00 | 0.02 | 0.02 | 92 | 1007.4 |
| 20260507103743 | 55 | 144 | 0.0 | 2.0 | 0.00 | 0.02 | 0.02 | 91 | 1007.5 |
| 20260507103235 | 55 | 201 | 0.0 | 3.0 | 0.00 | 0.02 | 0.02 | 90 | 1007.7 |
| 20260507102731 | 55 | 210 | 1.0 | 3.0 | 0.00 | 0.02 | 0.02 | 89 | 1007.7 |
| 20260507102228 | 56 | 243 | 2.0 | 4.0 | 0.00 | 0.02 | 0.02 | 87 | 1008.0 |
| 20260507101724 | 56 | 274 | 1.0 | 6.0 | 0.00 | 0.02 | 0.02 | 86 | 1007.8 |
| 20260507101219 | 56 | 285 | 2.0 | 3.0 | 0.00 | 0.02 | 0.02 | 86 | 1007.9 |
| 20260507100717 | 57 | 234 | 2.0 | 9.0 | 0.00 | 0.02 | 0.02 | 87 | 1007.8 |
| 20260507100215 | 57 | 183 | 3.0 | 3.0 | 0.00 | 0.02 | 0.02 | 87 | 1008.0 |
| 20260507095713 | 57 | 157 | 0.0 | 3.0 | 0.00 | 0.02 | 0.02 | 88 | 1007.6 |
| 20260507095209 | 57 | 318 | 0.0 | 6.0 | 0.00 | 0.02 | 0.02 | 87 | 1007.2 |
| 20260507094706 | 57 | 47 | 1.0 | 2.0 | 0.00 | 0.02 | 0.02 | 89 | 1007.2 |
| 20260507094203 | 57 | 345 | 0.0 | 3.0 | 0.00 | 0.02 | 0.02 | 89 | 1007.3 |
| 20260507093700 | 57 | 251 | 1.0 | 3.0 | 0.00 | 0.02 | 0.02 | 89 | 1007.2 |
| 20260507093159 | 57 | 164 | 2.0 | 3.0 | 0.00 | 0.02 | 0.02 | 89 | 1007.2 |
| 20260507092655 | 57 | 183 | 2.0 | 3.0 | 0.00 | 0.02 | 0.02 | 89 | 1007.3 |
| 20260507092151 | 57 | 314 | 2.0 | 5.0 | 0.00 | 0.02 | 0.02 | 89 | 1007.4 |
| 20260507091648 | 57 | 31 | 2.0 | 3.0 | 0.00 | 0.02 | 0.02 | 90 | 1007.2 |
| 20260507091144 | 57 | 3 | 2.0 | 3.0 | 0.00 | 0.02 | 0.02 | 90 | 1007.2 |
| 20260507090640 | 57 | 332 | 3.0 | 3.0 | 0.00 | 0.02 | 0.02 | 89 | 1007.1 |
| 20260507090137 | 57 | 172 | 1.0 | 3.0 | 0.00 | 0.02 | 0.02 | 90 | 1007.2 |
| 20260507085634 | 57 | 261 | 1.0 | 5.0 | 0.00 | 0.02 | 0.02 | 90 | 1006.8 |
| 20260507085131 | 57 | 299 | 1.0 | 3.0 | 0.00 | 0.02 | 0.02 | 89 | 1007.0 |
| 20260507084628 | 57 | 266 | 3.0 | 4.0 | 0.00 | 0.02 | 0.02 | 91 | 1007.0 |
| 20260507084125 | 57 | 269 | 0.0 | 7.0 | 0.00 | 0.02 | 0.02 | 91 | 1007.1 |
| 20260507083621 | 57 | 230 | 1.0 | 3.0 | 0.00 | 0.02 | 0.02 | 92 | 1007.1 |
| 20260507083118 | 57 | 201 | 0.0 | 6.0 | 0.00 | 0.02 | 0.02 | 93 | 1006.7 |
| 20260507082614 | 58 | 168 | 0.0 | 2.0 | 0.00 | 0.02 | 0.02 | 93 | 1006.6 |
| 20260507082111 | 58 | 199 | 0.0 | 2.0 | 0.00 | 0.02 | 0.02 | 93 | 1006.6 |
| 20260507081607 | 58 | 166 | 1.0 | 2.0 | 0.00 | 0.02 | 0.02 | 93 | 1006.4 |
| 20260507081104 | 58 | 84 | 1.0 | 3.0 | 0.00 | 0.02 | 0.02 | 93 | 1006.4 |
| 20260507080600 | 58 | 335 | 3.0 | 3.0 | 0.00 | 0.02 | 0.02 | 93 | 1006.7 |
| 20260507080056 | 58 | 48 | 0.0 | 4.0 | 0.00 | 0.02 | 0.02 | 93 | 1006.7 |
| 20260507075551 | 58 | 113 | 1.0 | 2.0 | 0.00 | 0.02 | 0.02 | 93 | 1006.8 |
| 20260507075048 | 58 | 204 | 3.0 | 3.0 | 0.00 | 0.02 | 0.02 | 93 | 1007.0 |
| 20260507074545 | 59 | 51 | 1.0 | 4.0 | 0.00 | 0.02 | 0.02 | 94 | 1007.0 |
| 20260507074043 | 59 | 154 | 3.0 | 3.0 | 0.00 | 0.02 | 0.02 | 94 | 1006.7 |
| 20260507073538 | 59 | 44 | 0.0 | 3.0 | 0.00 | 0.02 | 0.02 | 94 | 1006.6 |
| 20260507073030 | 59 | 233 | 2.0 | 3.0 | 0.00 | 0.02 | 0.02 | 94 | 1006.8 |
| 20260507072527 | 60 | 226 | 3.0 | 3.0 | 0.00 | 0.02 | 0.02 | 94 | 1006.5 |
| 20260507072024 | 60 | 112 | 2.0 | 4.0 | 0.00 | 0.02 | 0.02 | 94 | 1006.5 |
| 20260507071522 | 60 | 245 | 0.0 | 4.0 | 0.00 | 0.02 | 0.02 | 94 | 1006.1 |
| 20260507071018 | 60 | 222 | 3.0 | 3.0 | 0.00 | 0.02 | 0.02 | 94 | 1006.1 |
| 20260507070516 | 60 | 258 | 3.0 | 4.0 | 0.00 | 0.02 | 0.02 | 94 | 1005.8 |
| 20260507070014 | 61 | 277 | 1.0 | 3.0 | 0.00 | 0.02 | 0.02 | 95 | 1005.5 |
| 20260507065509 | 62 | 3 | 0.0 | 2.0 | 0.00 | 0.02 | 0.02 | 96 | 1005.4 |
| 20260507065006 | 62 | 298 | 0.0 | 2.0 | 0.00 | 0.02 | 0.02 | 96 | 1005.3 |
| 20260507064504 | 62 | 159 | 0.0 | 1.0 | 0.00 | 0.02 | 0.02 | 96 | 1005.2 |
| 20260507064003 | 62 | 130 | 0.0 | 3.0 | 0.00 | 0.02 | 0.02 | 95 | 1005.1 |
| 20260507063459 | 62 | 190 | 0.0 | 1.0 | 0.00 | 0.02 | 0.02 | 96 | 1004.9 |
| 20260507062956 | 62 | 221 | 0.0 | 1.0 | 0.00 | 0.02 | 0.02 | 96 | 1004.8 |
| 20260507062453 | 62 | 210 | 0.0 | 2.0 | 0.00 | 0.02 | 0.02 | 96 | 1005.1 |
| 20260507061950 | 62 | 244 | 0.0 | 1.0 | 0.00 | 0.02 | 0.02 | 96 | 1005.2 |
| 20260507061448 | 63 | 208 | 0.0 | 2.0 | 0.00 | 0.02 | 0.02 | 96 | 1005.2 |
| 20260507060946 | 63 | 251 | 1.0 | 2.0 | 0.00 | 0.02 | 0.02 | 96 | 1005.2 |
| 20260507060443 | 63 | 2 | 0.0 | 3.0 | 0.02 | 0.02 | 0.02 | 96 | 1005.7 |
| 20260507055939 | 63 | 31 | 0.0 | 1.0 | 0.02 | 0.02 | 0.02 | 96 | 1005.6 |
| 20260507055435 | 63 | 109 | 0.0 | 2.0 | 0.00 | 0.02 | 0.02 | 96 | 1005.6 |
| 20260507054932 | 63 | 291 | 0.0 | 1.0 | 0.00 | 0.02 | 0.02 | 96 | 1005.6 |
| 20260507054428 | 64 | 79 | 2.0 | 2.0 | 0.00 | 0.02 | 0.02 | 96 | 1005.8 |
| 20260507053925 | 64 | 184 | 0.0 | 2.0 | 0.02 | 0.02 | 0.02 | 96 | 1006.0 |
| 20260507053422 | 64 | 149 | 1.0 | 4.0 | 0.07 | 0.02 | 0.02 | 96 | 1006.0 |
| 20260507052921 | 63 | 254 | 0.0 | 3.0 | 0.09 | 0.02 | 0.02 | 96 | 1005.8 |
| 20260507052418 | 63 | 211 | 0.0 | 2.0 | 0.05 | 0.01 | 0.01 | 95 | 1005.8 |
| 20260507051909 | 63 | 113 | 0.0 | 2.0 | 0.00 | 0.00 | 0.00 | 95 | 1005.8 |
| 20260507051407 | 63 | 131 | 0.0 | 1.0 | 0.00 | 0.00 | 0.00 | 95 | 1006.1 |
| 20260507050904 | 63 | 102 | 0.0 | 2.0 | 0.00 | 0.00 | 0.00 | 94 | 1006.0 |
| 20260507050400 | 63 | 110 | 0.0 | 1.0 | 0.00 | 0.00 | 0.00 | 94 | 1005.8 |
| 20260507045857 | 63 | 260 | 0.0 | 1.0 | 0.00 | 0.00 | 0.00 | 94 | 1005.8 |
| 20260507045353 | 63 | 180 | 0.0 | 1.0 | 0.00 | 0.00 | 0.00 | 94 | 1005.7 |
| 20260507044851 | 63 | 243 | 0.0 | 1.0 | 0.00 | 0.00 | 0.00 | 94 | 1005.7 |
| 20260507044347 | 63 | 204 | 0.0 | 1.0 | 0.00 | 0.00 | 0.00 | 94 | 1005.8 |
| 20260507043843 | 63 | 124 | 0.0 | 2.0 | 0.00 | 0.00 | 0.00 | 94 | 1006.0 |
| 20260507043340 | 63 | 116 | 1.0 | 2.0 | 0.00 | 0.00 | 0.00 | 94 | 1005.7 |
| 20260507042836 | 63 | 89 | 0.0 | 1.0 | 0.00 | 0.00 | 0.00 | 94 | 1005.5 |
| 20260507042332 | 63 | 20 | 0.0 | 1.0 | 0.00 | 0.00 | 0.00 | 94 | 1005.6 |
| 20260507041829 | 63 | 126 | 0.0 | 1.0 | 0.00 | 0.00 | 0.00 | 94 | 1006.0 |
| 20260507041325 | 63 | 184 | 0.0 | 0.0 | 0.00 | 0.00 | 0.00 | 94 | 1005.6 |
| 20260507040823 | 63 | 256 | 0.0 | 0.0 | 0.00 | 0.00 | 0.00 | 93 | 1005.8 |
| 20260507040319 | 63 | 123 | 1.0 | 1.0 | 0.00 | 0.00 | 0.00 | 93 | 1005.6 |
| 20260507035815 | 63 | 49 | 0.0 | 1.0 | 0.00 | 0.05 | 0.05 | 93 | 1005.8 |
| 20260507035310 | 64 | 124 | 0.0 | 2.0 | 0.00 | 0.05 | 0.05 | 93 | 1006.1 |
| 20260507034809 | 64 | 11 | 0.0 | 1.0 | 0.00 | 0.05 | 0.05 | 93 | 1005.9 |
| 20260507034305 | 64 | 269 | 0.0 | 1.0 | 0.00 | 0.05 | 0.05 | 93 | 1006.2 |
| 20260507033803 | 63 | 233 | 1.0 | 1.0 | 0.00 | 0.05 | 0.05 | 93 | 1006.1 |
| 20260507033301 | 63 | 326 | 0.0 | 2.0 | 0.00 | 0.05 | 0.05 | 93 | 1006.0 |
| 20260507032757 | 63 | 251 | 0.0 | 2.0 | 0.00 | 0.05 | 0.05 | 93 | 1005.7 |
| 20260507032253 | 63 | 299 | 0.0 | 1.0 | 0.00 | 0.05 | 0.05 | 93 | 1005.6 |
| 20260507031750 | 63 | 129 | 0.0 | 0.0 | 0.00 | 0.05 | 0.05 | 93 | 1005.2 |
| 20260507031247 | 63 | 147 | 0.0 | 1.0 | 0.00 | 0.05 | 0.05 | 93 | 1005.2 |
| 20260507030744 | 63 | 136 | 1.0 | 2.0 | 0.00 | 0.05 | 0.05 | 93 | 1005.2 |
| 20260507030241 | 63 | 50 | 0.0 | 2.0 | 0.00 | 0.05 | 0.05 | 93 | 1005.2 |
| 20260507025738 | 63 | 102 | 2.0 | 2.0 | 0.00 | 0.05 | 0.05 | 93 | 1005.1 |
| 20260507025235 | 64 | 101 | 1.0 | 1.0 | 0.00 | 0.05 | 0.05 | 93 | 1005.2 |
| 20260507024734 | 64 | 98 | 0.0 | 1.0 | 0.00 | 0.05 | 0.05 | 93 | 1005.3 |
| 20260507024231 | 64 | 99 | 0.0 | 1.0 | 0.00 | 0.05 | 0.05 | 92 | 1005.1 |
| 20260507023726 | 64 | 100 | 1.0 | 2.0 | 0.00 | 0.05 | 0.05 | 92 | 1005.2 |
| 20260507023223 | 64 | 93 | 0.0 | 1.0 | 0.00 | 0.05 | 0.05 | 92 | 1005.5 |
| 20260507022720 | 64 | 99 | 0.0 | 0.0 | 0.00 | 0.05 | 0.05 | 92 | 1005.8 |
| 20260507022216 | 64 | 99 | 0.0 | 1.0 | 0.00 | 0.05 | 0.05 | 92 | 1005.5 |
| 20260507021713 | 64 | 142 | 0.0 | 1.0 | 0.00 | 0.05 | 0.05 | 92 | 1005.8 |
| 20260507021208 | 64 | 89 | 0.0 | 0.0 | 0.00 | 0.05 | 0.05 | 92 | 1006.3 |
| 20260507020707 | 64 | 89 | 0.0 | 1.0 | 0.00 | 0.05 | 0.05 | 92 | 1006.0 |
| 20260507020202 | 64 | 128 | 0.0 | 2.0 | 0.00 | 0.05 | 0.05 | 92 | 1005.9 |
| 20260507015701 | 64 | 137 | 1.0 | 1.0 | 0.00 | 0.05 | 0.05 | 92 | 1005.7 |
| 20260507015158 | 64 | 89 | 0.0 | 1.0 | 0.00 | 0.05 | 0.05 | 92 | 1005.9 |
| 20260507014654 | 64 | 135 | 0.0 | 1.0 | 0.00 | 0.05 | 0.05 | 92 | 1005.8 |
| 20260507014150 | 64 | 205 | 0.0 | 0.0 | 0.00 | 0.05 | 0.05 | 91 | 1005.6 |
| 20260507013647 | 64 | 50 | 0.0 | 0.0 | 0.00 | 0.05 | 0.05 | 91 | 1005.6 |
| 20260507013144 | 65 | 50 | 0.0 | 1.0 | 0.00 | 0.05 | 0.05 | 91 | 1005.8 |